Time,TemperatureF,DewpointF,PressureIn,WindDirection,WindDirectionDegrees,WindSpeedMPH,WindSpeedGustMPH,Humidity,HourlyPrecipIn,Conditions,Clouds,dailyrainin,SoftwareType,DateUTC
2013-03-01 00:01:00,51.0,5.0,-100.00,NE,37,6.0,13.0,15,-99.99,,,-99.99,,2013-03-01 08:01:00,
2013-03-01 00:11:00,50.0,4.0,-100.00,ENE,76,3.0,8.0,15,-99.99,,,-99.99,,2013-03-01 08:11:00,
2013-03-01 00:22:00,49.0,6.0,-100.00,ESE,110,2.0,3.0,17,-99.99,,,-99.99,,2013-03-01 08:22:00,
2013-03-01 00:32:00,48.0,5.0,-100.00,East,98,3.0,6.0,17,-99.99,,,-99.99,,2013-03-01 08:32:00,
2013-03-01 00:42:00,50.0,4.0,-100.00,ENE,66,8.0,14.0,15,-99.99,,,-99.99,,2013-03-01 08:42:00,
2013-03-01 00:52:00,50.0,6.0,-100.00,ENE,72,11.0,17.0,16,-99.99,,,-99.99,,2013-03-01 08:52:00,
2013-03-01 01:01:00,51.0,5.0,-100.00,ENE,65,13.0,20.0,15,-99.99,,,-99.99,,2013-03-01 09:01:00,
2013-03-01 01:11:00,50.0,4.0,-100.00,NE,47,5.0,16.0,15,-99.99,,,-99.99,,2013-03-01 09:11:00,
2013-03-01 01:21:00,50.0,4.0,-100.00,NE,40,7.0,14.0,15,-99.99,,,-99.99,,2013-03-01 09:21:00,
2013-03-01 01:31:00,50.0,4.0,-100.00,North,2,6.0,20.0,15,-99.99,,,-99.99,,2013-03-01 09:31:00,
2013-03-01 01:42:00,50.0,4.0,-100.00,North,2,6.0,20.0,15,-99.99,,,-99.99,,2013-03-01 09:42:00,
2013-03-01 01:52:00,50.0,6.0,-100.00,NE,46,8.0,23.0,16,-99.99,,,-99.99,,2013-03-01 09:52:00,
2013-03-01 02:01:00,51.0,5.0,-100.00,NE,42,8.0,23.0,15,-99.99,,,-99.99,,2013-03-01 10:01:00,
2013-03-01 02:11:00,51.0,5.0,-100.00,ENE,63,14.0,31.0,15,-99.99,,,-99.99,,2013-03-01 10:11:00,
2013-03-01 02:21:00,51.0,5.0,-100.00,ENE,63,16.0,32.0,15,-99.99,,,-99.99,,2013-03-01 10:21:00,
2013-03-01 02:31:00,52.0,6.0,-100.00,ENE,66,17.0,37.0,15,-99.99,,,-99.99,,2013-03-01 10:31:00,
2013-03-01 02:41:00,51.0,5.0,-100.00,ENE,67,15.0,33.0,15,-99.99,,,-99.99,,2013-03-01 10:41:00,
2013-03-01 02:52:00,52.0,6.0,-100.00,ENE,62,18.0,35.0,15,-99.99,,,-99.99,,2013-03-01 10:52:00,
2013-03-01 03:01:00,52.0,6.0,-100.00,ENE,68,20.0,31.0,15,-99.99,,,-99.99,,2013-03-01 11:01:00,
2013-03-01 03:11:00,52.0,6.0,-100.00,ENE,66,24.0,38.0,15,-99.99,,,-99.99,,2013-03-01 11:11:00,
2013-03-01 03:22:00,52.0,6.0,-100.00,ENE,64,21.0,38.0,15,-99.99,,,-99.99,,2013-03-01 11:22:00,
2013-03-01 03:31:00,52.0,6.0,-100.00,ENE,69,22.0,34.0,15,-99.99,,,-99.99,,2013-03-01 11:31:00,
2013-03-01 03:41:00,52.0,6.0,-100.00,ENE,69,22.0,34.0,15,-99.99,,,-99.99,,2013-03-01 11:41:00,
2013-03-01 03:52:00,52.0,6.0,-100.00,ENE,67,24.0,34.0,15,-99.99,,,-99.99,,2013-03-01 11:52:00,
2013-03-01 04:01:00,52.0,6.0,-100.00,ENE,66,22.0,37.0,15,-99.99,,,-99.99,,2013-03-01 12:01:00,
2013-03-01 04:11:00,52.0,6.0,-100.00,ENE,66,25.0,37.0,15,-99.99,,,-99.99,,2013-03-01 12:11:00,
2013-03-01 04:21:00,52.0,6.0,-100.00,ENE,68,23.0,37.0,15,-99.99,,,-99.99,,2013-03-01 12:21:00,
2013-03-01 04:32:00,52.0,6.0,-100.00,ENE,67,21.0,33.0,15,-99.99,,,-99.99,,2013-03-01 12:32:00,
2013-03-01 04:42:00,51.0,5.0,-100.00,ENE,61,18.0,32.0,15,-99.99,,,-99.99,,2013-03-01 12:42:00,
2013-03-01 04:52:00,51.0,6.0,-100.00,ENE,69,15.0,39.0,16,-99.99,,,-99.99,,2013-03-01 12:52:00,
2013-03-01 05:01:00,51.0,6.0,-100.00,ENE,64,18.0,36.0,16,-99.99,,,-99.99,,2013-03-01 13:01:00,
2013-03-01 05:11:00,52.0,7.0,-100.00,ENE,66,18.0,32.0,16,-99.99,,,-99.99,,2013-03-01 13:11:00,
2013-03-01 05:21:00,52.0,7.0,-100.00,ENE,62,22.0,35.0,16,-99.99,,,-99.99,,2013-03-01 13:21:00,
2013-03-01 05:32:00,52.0,7.0,-100.00,ENE,62,23.0,36.0,16,-99.99,,,-99.99,,2013-03-01 13:32:00,
2013-03-01 05:41:00,52.0,7.0,-100.00,ENE,62,23.0,36.0,16,-99.99,,,-99.99,,2013-03-01 13:41:00,
2013-03-01 05:51:00,51.0,6.0,-100.00,ENE,65,24.0,38.0,16,-99.99,,,-99.99,,2013-03-01 13:51:00,
2013-03-01 06:01:00,51.0,6.0,-100.00,ENE,64,25.0,37.0,16,-99.99,,,-99.99,,2013-03-01 14:01:00,
2013-03-01 06:11:00,51.0,8.0,-100.00,ENE,66,25.0,35.0,17,-99.99,,,-99.99,,2013-03-01 14:11:00,
2013-03-01 06:21:00,51.0,6.0,-100.00,ENE,66,26.0,39.0,16,-99.99,,,-99.99,,2013-03-01 14:21:00,
2013-03-01 06:32:00,52.0,9.0,-100.00,ENE,66,28.0,42.0,17,-99.99,,,-99.99,,2013-03-01 14:32:00,
2013-03-01 06:41:00,52.0,9.0,-100.00,ENE,64,28.0,41.0,17,-99.99,,,-99.99,,2013-03-01 14:41:00,
2013-03-01 06:52:00,51.0,8.0,-100.00,ENE,65,27.0,39.0,17,-99.99,,,-99.99,,2013-03-01 14:52:00,
2013-03-01 07:01:00,51.0,8.0,-100.00,ENE,66,28.0,40.0,17,-99.99,,,-99.99,,2013-03-01 15:01:00,
2013-03-01 07:11:00,51.0,8.0,-100.00,ENE,66,28.0,40.0,17,-99.99,,,-99.99,,2013-03-01 15:11:00,
2013-03-01 07:21:00,52.0,7.0,-100.00,ENE,64,32.0,45.0,16,-99.99,,,-99.99,,2013-03-01 15:21:00,
2013-03-01 07:31:00,52.0,7.0,-100.00,ENE,65,28.0,42.0,16,-99.99,,,-99.99,,2013-03-01 15:31:00,
2013-03-01 07:42:00,52.0,7.0,-100.00,ENE,66,27.0,42.0,16,-99.99,,,-99.99,,2013-03-01 15:42:00,
2013-03-01 07:52:00,52.0,7.0,-100.00,ENE,67,26.0,40.0,16,-99.99,,,-99.99,,2013-03-01 15:52:00,
2013-03-01 08:01:00,52.0,7.0,-100.00,ENE,63,26.0,38.0,16,-99.99,,,-99.99,,2013-03-01 16:01:00,
2013-03-01 08:11:00,52.0,6.0,-100.00,ENE,64,27.0,45.0,15,-99.99,,,-99.99,,2013-03-01 16:11:00,
2013-03-01 08:21:00,52.0,7.0,-100.00,ENE,63,28.0,40.0,16,-99.99,,,-99.99,,2013-03-01 16:21:00,
2013-03-01 08:31:00,52.0,7.0,-100.00,ENE,65,24.0,43.0,16,-99.99,,,-99.99,,2013-03-01 16:31:00,
2013-03-01 08:41:00,52.0,7.0,-100.00,ENE,64,27.0,41.0,16,-99.99,,,-99.99,,2013-03-01 16:41:00,
2013-03-01 08:51:00,53.0,8.0,-100.00,ENE,61,25.0,42.0,16,-99.99,,,-99.99,,2013-03-01 16:51:00,
2013-03-01 09:01:00,53.0,8.0,-100.00,ENE,61,25.0,42.0,16,-99.99,,,-99.99,,2013-03-01 17:01:00,
2013-03-01 09:11:00,53.0,7.0,-100.00,ENE,65,24.0,40.0,15,-99.99,,,-99.99,,2013-03-01 17:11:00,
2013-03-01 09:21:00,53.0,7.0,-100.00,ENE,61,25.0,41.0,15,-99.99,,,-99.99,,2013-03-01 17:21:00,
2013-03-01 09:31:00,53.0,7.0,-100.00,ENE,67,24.0,41.0,15,-99.99,,,-99.99,,2013-03-01 17:31:00,
2013-03-01 09:41:00,53.0,7.0,-100.00,ENE,65,24.0,42.0,15,-99.99,,,-99.99,,2013-03-01 17:41:00,
2013-03-01 09:52:00,53.0,8.0,-100.00,ENE,68,23.0,40.0,16,-99.99,,,-99.99,,2013-03-01 17:52:00,
2013-03-01 10:01:00,54.0,9.0,-100.00,ENE,63,20.0,37.0,16,-99.99,,,-99.99,,2013-03-01 18:01:00,
2013-03-01 10:11:00,54.0,9.0,-100.00,ENE,63,21.0,37.0,16,-99.99,,,-99.99,,2013-03-01 18:11:00,
2013-03-01 10:22:00,54.0,7.0,-100.00,ENE,64,25.0,39.0,15,-99.99,,,-99.99,,2013-03-01 18:22:00,
2013-03-01 10:31:00,54.0,7.0,-100.00,ENE,64,20.0,36.0,15,-99.99,,,-99.99,,2013-03-01 18:31:00,
2013-03-01 10:41:00,54.0,7.0,-100.00,ENE,65,26.0,40.0,15,-99.99,,,-99.99,,2013-03-01 18:41:00,
2013-03-01 10:52:00,54.0,7.0,-100.00,ENE,64,24.0,37.0,15,-99.99,,,-99.99,,2013-03-01 18:52:00,
2013-03-01 11:01:00,55.0,7.0,-100.00,ENE,62,25.0,44.0,14,-99.99,,,-99.99,,2013-03-01 19:01:00,
2013-03-01 11:11:00,55.0,7.0,-100.00,ENE,62,25.0,44.0,14,-99.99,,,-99.99,,2013-03-01 19:11:00,
2013-03-01 11:21:00,55.0,7.0,-100.00,ENE,63,24.0,36.0,14,-99.99,,,-99.99,,2013-03-01 19:21:00,
2013-03-01 11:31:00,55.0,8.0,-100.00,ENE,62,19.0,36.0,15,-99.99,,,-99.99,,2013-03-01 19:31:00,
2013-03-01 11:41:00,56.0,9.0,-100.00,ENE,65,21.0,35.0,15,-99.99,,,-99.99,,2013-03-01 19:41:00,
2013-03-01 11:51:00,56.0,9.0,-100.00,ENE,65,22.0,36.0,15,-99.99,,,-99.99,,2013-03-01 19:51:00,
2013-03-01 12:01:00,56.0,9.0,-100.00,ENE,63,24.0,35.0,15,-99.99,,,-99.99,,2013-03-01 20:01:00,
2013-03-01 12:11:00,56.0,9.0,-100.00,ENE,62,25.0,38.0,15,-99.99,,,-99.99,,2013-03-01 20:11:00,
2013-03-01 12:21:00,56.0,9.0,-100.00,ENE,63,26.0,40.0,15,-99.99,,,-99.99,,2013-03-01 20:21:00,
2013-03-01 12:31:00,56.0,9.0,-100.00,ENE,63,26.0,40.0,15,-99.99,,,-99.99,,2013-03-01 20:31:00,
2013-03-01 12:41:00,56.0,9.0,-100.00,ENE,64,25.0,35.0,15,-99.99,,,-99.99,,2013-03-01 20:41:00,
2013-03-01 12:52:00,57.0,10.0,-100.00,ENE,64,24.0,35.0,15,-99.99,,,-99.99,,2013-03-01 20:52:00,
2013-03-01 13:01:00,57.0,10.0,-100.00,ENE,63,24.0,35.0,15,-99.99,,,-99.99,,2013-03-01 21:01:00,
2013-03-01 13:11:00,57.0,10.0,-100.00,ENE,63,24.0,35.0,15,-99.99,,,-99.99,,2013-03-01 21:11:00,
2013-03-01 13:21:00,57.0,10.0,-100.00,ENE,61,26.0,37.0,15,-99.99,,,-99.99,,2013-03-01 21:21:00,
2013-03-01 13:31:00,57.0,10.0,-100.00,ENE,65,23.0,34.0,15,-99.99,,,-99.99,,2013-03-01 21:31:00,
2013-03-01 13:41:00,57.0,10.0,-100.00,ENE,65,23.0,34.0,15,-99.99,,,-99.99,,2013-03-01 21:41:00,
2013-03-01 13:51:00,57.0,10.0,-100.00,ENE,66,24.0,32.0,15,-99.99,,,-99.99,,2013-03-01 21:51:00,
2013-03-01 14:01:00,58.0,11.0,-100.00,ENE,66,23.0,34.0,15,-99.99,,,-99.99,,2013-03-01 22:01:00,
2013-03-01 14:11:00,58.0,11.0,-100.00,ENE,66,23.0,34.0,15,-99.99,,,-99.99,,2013-03-01 22:11:00,
2013-03-01 14:21:00,58.0,11.0,-100.00,ENE,63,22.0,32.0,15,-99.99,,,-99.99,,2013-03-01 22:21:00,
2013-03-01 14:31:00,58.0,11.0,-100.00,ENE,69,23.0,34.0,15,-99.99,,,-99.99,,2013-03-01 22:31:00,
2013-03-01 14:41:00,58.0,11.0,-100.00,ENE,66,22.0,34.0,15,-99.99,,,-99.99,,2013-03-01 22:41:00,
2013-03-01 14:51:00,58.0,11.0,-100.00,ENE,66,22.0,34.0,15,-99.99,,,-99.99,,2013-03-01 22:51:00,
2013-03-01 15:01:00,58.0,11.0,-100.00,ENE,66,21.0,32.0,15,-99.99,,,-99.99,,2013-03-01 23:01:00,
2013-03-01 15:11:00,58.0,11.0,-100.00,ENE,66,21.0,32.0,15,-99.99,,,-99.99,,2013-03-01 23:11:00,
2013-03-01 15:21:00,58.0,11.0,-100.00,ENE,66,19.0,30.0,15,-99.99,,,-99.99,,2013-03-01 23:21:00,
2013-03-01 15:31:00,58.0,11.0,-100.00,ENE,65,20.0,30.0,15,-99.99,,,-99.99,,2013-03-01 23:31:00,
2013-03-01 15:41:00,58.0,11.0,-100.00,ENE,65,20.0,30.0,15,-99.99,,,-99.99,,2013-03-01 23:41:00,
2013-03-01 15:52:00,58.0,11.0,-100.00,ENE,63,19.0,30.0,15,-99.99,,,-99.99,,2013-03-01 23:52:00,
2013-03-01 16:01:00,58.0,11.0,-100.00,ENE,65,18.0,29.0,15,-99.99,,,-99.99,,2013-03-02 00:01:00,
2013-03-01 16:11:00,58.0,11.0,-100.00,ENE,65,18.0,27.0,15,-99.99,,,-99.99,,2013-03-02 00:11:00,
2013-03-01 16:21:00,58.0,11.0,-100.00,ENE,69,16.0,28.0,15,-99.99,,,-99.99,,2013-03-02 00:21:00,
2013-03-01 16:31:00,58.0,12.0,-100.00,ENE,68,15.0,23.0,16,-99.99,,,-99.99,,2013-03-02 00:31:00,
2013-03-01 16:41:00,58.0,12.0,-100.00,ENE,60,15.0,23.0,16,-99.99,,,-99.99,,2013-03-02 00:41:00,
2013-03-01 16:52:00,58.0,12.0,-100.00,ENE,64,13.0,24.0,16,-99.99,,,-99.99,,2013-03-02 00:52:00,
2013-03-01 17:01:00,58.0,12.0,-100.00,ENE,72,12.0,23.0,16,-99.99,,,-99.99,,2013-03-02 01:01:00,
2013-03-01 17:11:00,58.0,12.0,-100.00,ENE,69,14.0,23.0,16,-99.99,,,-99.99,,2013-03-02 01:11:00,
2013-03-01 17:21:00,57.0,11.0,-100.00,ENE,70,17.0,27.0,16,-99.99,,,-99.99,,2013-03-02 01:21:00,
2013-03-01 17:31:00,57.0,11.0,-100.00,ENE,70,17.0,27.0,16,-99.99,,,-99.99,,2013-03-02 01:31:00,
2013-03-01 17:41:00,57.0,13.0,-100.00,ENE,66,21.0,28.0,17,-99.99,,,-99.99,,2013-03-02 01:41:00,
2013-03-01 17:51:00,57.0,13.0,-100.00,ENE,65,19.0,28.0,17,-99.99,,,-99.99,,2013-03-02 01:51:00,
2013-03-01 18:01:00,57.0,13.0,-100.00,ENE,69,16.0,24.0,17,-99.99,,,-99.99,,2013-03-02 02:01:00,
2013-03-01 18:11:00,56.0,12.0,-100.00,ENE,70,15.0,26.0,17,-99.99,,,-99.99,,2013-03-02 02:11:00,
2013-03-01 18:21:00,56.0,13.0,-100.00,ENE,75,12.0,24.0,18,-99.99,,,-99.99,,2013-03-02 02:21:00,
2013-03-01 18:31:00,56.0,13.0,-100.00,ENE,69,9.0,25.0,18,-99.99,,,-99.99,,2013-03-02 02:31:00,
2013-03-01 18:41:00,56.0,13.0,-100.00,NE,52,6.0,20.0,18,-99.99,,,-99.99,,2013-03-02 02:41:00,
2013-03-01 18:52:00,56.0,13.0,-100.00,ENE,59,8.0,24.0,18,-99.99,,,-99.99,,2013-03-02 02:52:00,
2013-03-01 19:01:00,56.0,13.0,-100.00,ENE,74,14.0,27.0,18,-99.99,,,-99.99,,2013-03-02 03:01:00,
2013-03-01 19:11:00,56.0,13.0,-100.00,ENE,74,14.0,27.0,18,-99.99,,,-99.99,,2013-03-02 03:11:00,
2013-03-01 19:21:00,57.0,14.0,-100.00,ENE,64,17.0,29.0,18,-99.99,,,-99.99,,2013-03-02 03:21:00,
2013-03-01 19:32:00,57.0,14.0,-100.00,ENE,65,19.0,32.0,18,-99.99,,,-99.99,,2013-03-02 03:32:00,
2013-03-01 19:41:00,57.0,14.0,-100.00,ENE,72,18.0,32.0,18,-99.99,,,-99.99,,2013-03-02 03:41:00,
2013-03-01 19:52:00,57.0,14.0,-100.00,ENE,65,17.0,31.0,18,-99.99,,,-99.99,,2013-03-02 03:52:00,
2013-03-01 20:01:00,57.0,14.0,-100.00,ENE,64,16.0,29.0,18,-99.99,,,-99.99,,2013-03-02 04:01:00,
2013-03-01 20:11:00,57.0,14.0,-100.00,ENE,63,16.0,31.0,18,-99.99,,,-99.99,,2013-03-02 04:11:00,
2013-03-01 20:21:00,57.0,14.0,-100.00,ENE,65,15.0,30.0,18,-99.99,,,-99.99,,2013-03-02 04:21:00,
2013-03-01 20:31:00,56.0,13.0,-100.00,NE,48,8.0,21.0,18,-99.99,,,-99.99,,2013-03-02 04:31:00,
2013-03-01 20:41:00,56.0,13.0,-100.00,NE,36,8.0,26.0,18,-99.99,,,-99.99,,2013-03-02 04:41:00,
2013-03-01 20:51:00,56.0,13.0,-100.00,NNE,33,8.0,19.0,18,-99.99,,,-99.99,,2013-03-02 04:51:00,
2013-03-01 21:01:00,56.0,13.0,-100.00,NNE,33,8.0,19.0,18,-99.99,,,-99.99,,2013-03-02 05:01:00,
2013-03-01 21:12:00,56.0,14.0,-100.00,NNE,19,6.0,16.0,19,-99.99,,,-99.99,,2013-03-02 05:12:00,
2013-03-01 21:22:00,55.0,14.0,-100.00,North,11,3.0,12.0,19,-99.99,,,-99.99,,2013-03-02 05:22:00,
2013-03-01 21:31:00,55.0,14.0,-100.00,North,4,5.0,12.0,19,-99.99,,,-99.99,,2013-03-02 05:31:00,
2013-03-01 21:41:00,55.0,14.0,-100.00,North,4,5.0,12.0,19,-99.99,,,-99.99,,2013-03-02 05:41:00,
2013-03-01 21:52:00,55.0,14.0,-100.00,North,1,4.0,9.0,19,-99.99,,,-99.99,,2013-03-02 05:52:00,
2013-03-01 22:01:00,55.0,14.0,-100.00,NE,56,4.0,12.0,19,-99.99,,,-99.99,,2013-03-02 06:01:00,
2013-03-01 22:11:00,55.0,15.0,-100.00,NE,43,2.0,8.0,20,-99.99,,,-99.99,,2013-03-02 06:11:00,
2013-03-01 22:21:00,55.0,15.0,-100.00,NE,34,2.0,5.0,20,-99.99,,,-99.99,,2013-03-02 06:21:00,
2013-03-01 22:31:00,55.0,15.0,-100.00,NE,49,3.0,7.0,20,-99.99,,,-99.99,,2013-03-02 06:31:00,
2013-03-01 22:41:00,55.0,15.0,-100.00,NE,52,5.0,16.0,20,-99.99,,,-99.99,,2013-03-02 06:41:00,
2013-03-01 22:51:00,55.0,15.0,-100.00,ENE,57,7.0,17.0,20,-99.99,,,-99.99,,2013-03-02 06:51:00,
2013-03-01 23:01:00,55.0,15.0,-100.00,ENE,71,9.0,16.0,20,-99.99,,,-99.99,,2013-03-02 07:01:00,
2013-03-01 23:11:00,55.0,15.0,-100.00,ENE,60,7.0,11.0,20,-99.99,,,-99.99,,2013-03-02 07:11:00,
2013-03-01 23:21:00,55.0,15.0,-100.00,ENE,63,8.0,17.0,20,-99.99,,,-99.99,,2013-03-02 07:21:00,
2013-03-01 23:32:00,55.0,15.0,-100.00,NE,49,6.0,12.0,20,-99.99,,,-99.99,,2013-03-02 07:32:00,
2013-03-01 23:41:00,55.0,15.0,-100.00,NE,49,6.0,12.0,20,-99.99,,,-99.99,,2013-03-02 07:41:00,
2013-03-01 23:51:00,54.0,15.0,-100.00,WSW,255,2.0,7.0,21,-99.99,,,-99.99,,2013-03-02 07:51:00,